Location: Newark
(35.9031°N, 139.7175°E)
Time: 05:17:42
(UTC+00:00)

Vanguard 3 - All Passes

Search period start: 28 May 2020 00:00
Search period end: 07 June 2020 00:00
Orbit: 510 x 3261 km, 33.3° (Epoch: 27 May)

Date Brightness Start Highest point End Pass type
(mag) Time Alt. Az. Time Alt. Az. Time Alt. Az.
28 May - 00:13:01 10° W 00:17:36 25° SSW 00:21:00 10° SSE daylight
28 May - 14:04:15 10° SSE 14:09:31 12° SE 14:14:25 10° ESE visible
28 May - 16:09:11 10° SSW 16:24:29 34° SSE 16:35:06 10° E visible
28 May - 18:23:37 10° WSW 18:38:57 60° SSE 18:47:41 10° E visible
28 May - 20:40:43 10° W 20:52:19 76° S 20:58:37 10° E daylight
28 May - 22:57:02 10° W 23:04:17 47° SSW 23:08:45 10° SE daylight
29 May - 14:54:52 10° S 15:08:33 25° SE 15:19:24 10° E visible
29 May - 17:06:48 10° SW 17:23:29 50° SSE 17:33:51 10° E visible
29 May - 19:23:20 10° WSW 19:37:37 74° S 19:45:25 10° E daylight
29 May - 21:40:35 10° W 21:50:29 67° SSW 21:56:01 10° ESE daylight
29 May - 23:56:42 10° W 00:01:31 23° SW 00:05:02 10° SSE daylight
30 May - 13:43:08 10° SSE 13:52:34 16° SE 14:01:05 10° ESE visible
30 May - 15:50:49 10° SSW 16:07:36 40° SSE 16:19:23 10° E visible
30 May - 18:05:52 10° WSW 18:22:24 66° SSE 18:31:55 10° E visible
30 May - 20:23:27 10° W 20:36:09 77° S 20:43:00 10° E daylight
30 May - 22:40:16 10° W 22:48:12 44° SSW 22:53:01 10° SE daylight
31 May - 14:36:10 10° SSW 14:51:31 29° SE 15:03:50 10° E visible
31 May - 16:48:50 10° SW 17:06:41 56° SSE 17:18:00 10° E visible
31 May - 19:05:50 10° WSW 19:21:14 77° S 19:29:42 10° E daylight
31 May - 21:23:29 10° W 21:34:22 65° SSW 21:40:22 10° ESE daylight
31 May - 23:40:18 10° W 23:45:20 21° SW 23:49:00 10° S daylight
01 Jun - 13:23:34 10° S 13:35:28 19° SE 13:46:15 10° E visible
01 Jun - 15:32:41 10° SW 15:50:34 45° SSE 16:03:28 10° E visible
01 Jun - 17:48:10 10° WSW 18:05:45 71° SSE 18:16:05 10° E visible
01 Jun - 20:06:06 10° W 20:19:53 77° S 20:27:19 10° ESE daylight
01 Jun - 22:23:24 10° W 22:32:03 41° SSW 22:37:15 10° SE daylight
02 Jun - 14:17:48 10° SSW 14:34:19 34° SE 14:47:57 10° E visible
02 Jun - 16:30:59 10° SW 16:49:45 62° SSE 17:02:03 10° E visible
02 Jun - 18:48:18 10° W 19:04:45 79° S 19:13:57 10° E visible
02 Jun - 21:06:17 10° W 21:18:09 62° SSW 21:24:40 10° ESE daylight
02 Jun - 23:23:51 10° W 23:29:04 19° SW 23:32:53 10° S daylight
03 Jun - 13:04:43 10° S 13:18:12 23° SE 13:30:45 10° E visible
03 Jun - 15:14:44 10° SW 15:33:24 51° SSE 15:47:25 10° E visible
03 Jun - 17:30:30 10° WSW 17:49:00 75° S 18:00:12 10° E visible
03 Jun - 19:48:41 10° W 20:03:31 76° S 20:11:36 10° ESE daylight
03 Jun - 22:06:24 10° W 22:15:48 38° SSW 22:21:25 10° SE daylight
04 Jun - 11:55:32 10° SSE 12:02:24 13° SE 12:09:17 10° ESE visible
04 Jun - 13:59:44 10° SSW 14:16:59 39° SE 14:31:51 10° E visible
04 Jun - 16:13:16 10° WSW 16:32:43 67° SSE 16:46:01 10° E visible
04 Jun - 18:30:45 10° W 18:48:09 80° S 18:58:08 10° E visible
04 Jun - 20:48:59 10° W 21:01:50 60° SSW 21:08:55 10° SE daylight
04 Jun - 23:07:19 10° W 23:12:42 18° SW 23:16:41 10° S daylight
05 Jun - 12:46:22 10° S 13:00:49 27° SE 13:14:49 10° E visible
05 Jun - 14:56:59 10° SW 15:16:07 56° SSE 15:31:12 10° E visible
05 Jun - 17:12:55 10° WSW 17:32:08 78° S 17:44:14 10° E visible
05 Jun - 19:31:12 10° W 19:47:03 75° SSW 19:55:50 10° ESE daylight
05 Jun - 21:49:20 10° W 21:59:24 36° SW 22:05:29 10° SSE daylight
06 Jun - 11:35:48 10° SSE 11:45:06 16° SE 11:54:41 10° ESE visible
06 Jun - 13:41:57 10° SSW 13:59:33 43° SE 14:15:32 10° E visible
06 Jun - 15:55:41 10° WSW 16:15:34 71° SSE 16:29:51 10° E visible
06 Jun - 18:13:13 10° W 18:31:29 81° S 18:42:15 10° E visible
06 Jun - 20:31:36 10° W 20:45:22 57° SSW 20:53:05 10° SE daylight
06 Jun - 22:50:47 10° W 22:56:14 17° SW 23:00:21 10° S daylight
